Location: Bamobli
(6.6379°N, 10.9396°W)
Time: 12:48:13
(UTC+00:00)

CZ-4B R/B - Pass Details

Date: 07 June 2020
Orbit: 487 x 652 km, 97.9° (Epoch: 04 July)

Event Time Altitude Azimuth Distance (km) Brightness Sun altitude
Rises 05:22:57 0° 9° (N) 2,542 6.7 -15.5°
Reaches altitude 10° 05:25:00 10° 8° (N) 1,665 5.7 -15.1°
Maximum altitude 05:28:33 77° 282° (WNW) 506 2.5 -14.3°
Enters shadow 05:32:02 11° 196° (SSW) 1,640 4.9 -13.5°
